Wetterdaten: Donnerstag, 07.05.2015
Datum Zeit Auen-Temp. Temp gefhlt Luftfeuchte Luftdruck Regen Wind Richtung Richtung Taupunkt Windben
07.05.2015 00:00 9,3 C 9,1 C 85 % 1017,6 hPa 0,0 mm 4,7 km/h (1 Bft) SO 135 6,9 C 0,0 km/h (0 Bft)
07.05.2015 00:05 9,2 C 9,0 C 85 % 1017,6 hPa 0,0 mm 3,6 km/h (1 Bft) O-SO 112 6,8 C 0,0 km/h (0 Bft)
07.05.2015 00:10 9,2 C 9,0 C 85 % 1017,6 hPa 0,0 mm 1,6 km/h (1 Bft) S-SW 202 6,8 C 6,5 km/h (2 Bft)
07.05.2015 00:15 9,5 C 9,2 C 85 % 1018,0 hPa 0,0 mm 4,9 km/h (1 Bft) S 180 7,1 C 13,2 km/h (3 Bft)
07.05.2015 00:20 9,6 C 9,4 C 84 % 1018,0 hPa 0,0 mm 8,3 km/h (2 Bft) S 180 7,0 C 17,6 km/h (3 Bft)
07.05.2015 00:25 9,8 C 9,6 C 83 % 1018,0 hPa 0,0 mm 7,0 km/h (2 Bft) S 180 7,1 C 9,8 km/h (2 Bft)
07.05.2015 00:30 10,0 C 9,9 C 82 % 1018,0 hPa 0,0 mm 6,2 km/h (2 Bft) W-SW 247 7,1 C 8,0 km/h (2 Bft)
07.05.2015 00:35 10,1 C 10,0 C 81 % 1018,3 hPa 0,0 mm 7,3 km/h (2 Bft) S-SO 157 7,0 C 8,0 km/h (2 Bft)
07.05.2015 00:40 9,9 C 9,8 C 81 % 1018,3 hPa 0,0 mm 7,0 km/h (2 Bft) W 270 6,8 C 26,9 km/h (4 Bft)
07.05.2015 00:45 9,6 C 9,3 C 82 % 1018,3 hPa 0,7 mm 8,8 km/h (2 Bft) W-NW 292 6,7 C 23,8 km/h (4 Bft)
07.05.2015 00:50 9,3 C 8,7 C 83 % 1018,3 hPa 0,0 mm 11,9 km/h (2 Bft) SW 225 6,6 C 13,2 km/h (3 Bft)
07.05.2015 00:55 9,2 C 8,7 C 83 % 1018,8 hPa 0,0 mm 10,1 km/h (2 Bft) W-SW 247 6,5 C 4,9 km/h (1 Bft)
07.05.2015 01:00 9,1 C 8,8 C 84 % 1018,8 hPa 0,7 mm 6,2 km/h (2 Bft) S-SW 202 6,5 C 0,0 km/h (0 Bft)
07.05.2015 01:05 9,0 C 8,8 C 85 % 1018,8 hPa 0,0 mm 4,4 km/h (1 Bft) W 270 6,6 C 3,1 km/h (1 Bft)
07.05.2015 01:10 8,9 C 8,7 C 85 % 1018,8 hPa 0,7 mm 4,7 km/h (1 Bft) W-SW 247 6,5 C 9,1 km/h (2 Bft)
07.05.2015 01:15 8,8 C 8,6 C 86 % 1019,1 hPa 0,0 mm 5,4 km/h (1 Bft) NW 315 6,6 C 9,6 km/h (2 Bft)
07.05.2015 01:20 8,8 C 8,6 C 86 % 1019,1 hPa 0,0 mm 6,5 km/h (2 Bft) SW 225 6,6 C 9,1 km/h (2 Bft)
07.05.2015 01:25 8,7 C 8,5 C 86 % 1019,1 hPa 0,7 mm 6,5 km/h (2 Bft) S-SW 202 6,5 C 5,4 km/h (1 Bft)
07.05.2015 01:30 8,6 C 8,5 C 86 % 1019,1 hPa 0,0 mm 3,6 km/h (1 Bft) O 90 6,4 C 0,0 km/h (0 Bft)
07.05.2015 01:35 8,6 C 8,4 C 87 % 1018,7 hPa 0,0 mm 1,6 km/h (1 Bft) W-SW 247 6,6 C 0,0 km/h (0 Bft)
07.05.2015 01:40 8,6 C 8,4 C 87 % 1018,7 hPa 0,0 mm 1,8 km/h (1 Bft) W 270 6,6 C 3,1 km/h (1 Bft)
07.05.2015 01:45 8,6 C 8,4 C 87 % 1018,7 hPa 0,0 mm 2,3 km/h (1 Bft) SW 225 6,6 C 4,7 km/h (1 Bft)
07.05.2015 01:50 8,5 C 8,4 C 87 % 1018,7 hPa 0,0 mm 1,0 km/h (0 Bft) O-SO 112 6,5 C 0,0 km/h (0 Bft)
07.05.2015 01:55 8,5 C 8,4 C 88 % 1018,7 hPa 0,0 mm 0,5 km/h (0 Bft) O 90 6,6 C 0,0 km/h (0 Bft)
07.05.2015 02:00 8,4 C 8,3 C 88 % 1018,7 hPa 0,0 mm 0,0 km/h (0 Bft) SO 135 6,5 C 0,0 km/h (0 Bft)
07.05.2015 02:05 8,4 C 8,2 C 88 % 1018,7 hPa 0,0 mm 0,0 km/h (0 Bft) SO 135 6,5 C 0,0 km/h (0 Bft)
07.05.2015 02:10 8,4 C 8,2 C 88 % 1018,7 hPa 0,0 mm 0,0 km/h (0 Bft) O-SO 112 6,5 C 0,0 km/h (0 Bft)
07.05.2015 02:15 8,3 C 8,2 C 88 % 1018,8 hPa 0,0 mm 0,0 km/h (0 Bft) S-SW 202 6,4 C 0,0 km/h (0 Bft)
07.05.2015 02:20 8,3 C 8,2 C 88 % 1018,8 hPa 0,0 mm 2,3 km/h (1 Bft) W 270 6,4 C 7,5 km/h (2 Bft)
07.05.2015 02:25 8,3 C 8,1 C 88 % 1018,8 hPa 0,0 mm 3,6 km/h (1 Bft) SW 225 6,4 C 5,4 km/h (1 Bft)
07.05.2015 02:30 8,2 C 8,0 C 88 % 1018,8 hPa 0,0 mm 4,1 km/h (1 Bft) SW 225 6,3 C 3,6 km/h (1 Bft)
07.05.2015 02:35 8,2 C 8,0 C 88 % 1018,7 hPa 0,0 mm 4,7 km/h (1 Bft) SW 225 6,3 C 6,5 km/h (2 Bft)
07.05.2015 02:40 8,1 C 7,9 C 88 % 1018,7 hPa 0,0 mm 5,2 km/h (1 Bft) S 180 6,2 C 6,2 km/h (2 Bft)
07.05.2015 02:45 8,0 C 7,8 C 88 % 1018,7 hPa 0,0 mm 4,7 km/h (1 Bft) SW 225 6,1 C 4,7 km/h (1 Bft)
07.05.2015 02:50 8,1 C 7,9 C 88 % 1018,7 hPa 0,0 mm 5,4 km/h (1 Bft) SW 225 6,2 C 11,4 km/h (2 Bft)
07.05.2015 02:55 8,2 C 8,0 C 88 % 1018,7 hPa 0,0 mm 6,2 km/h (2 Bft) W-SW 247 6,3 C 4,4 km/h (1 Bft)
07.05.2015 03:00 8,1 C 7,9 C 88 % 1018,7 hPa 0,0 mm 4,9 km/h (1 Bft) SW 225 6,2 C 3,1 km/h (1 Bft)
07.05.2015 03:05 8,1 C 7,9 C 88 % 1018,7 hPa 0,0 mm 4,9 km/h (1 Bft) W-SW 247 6,2 C 7,5 km/h (2 Bft)
07.05.2015 03:10 8,2 C 8,0 C 87 % 1018,7 hPa 0,0 mm 5,2 km/h (1 Bft) W 270 6,2 C 4,4 km/h (1 Bft)
07.05.2015 03:15 8,1 C 8,0 C 87 % 1018,6 hPa 0,0 mm 3,4 km/h (1 Bft) O-NO 67 6,1 C 2,6 km/h (1 Bft)
07.05.2015 03:20 8,1 C 7,9 C 87 % 1018,6 hPa 0,0 mm 2,8 km/h (1 Bft) SW 225 6,1 C 8,3 km/h (2 Bft)
07.05.2015 03:25 8,3 C 8,1 C 87 % 1018,6 hPa 0,0 mm 4,9 km/h (1 Bft) S-SW 202 6,3 C 12,4 km/h (3 Bft)
07.05.2015 03:30 8,3 C 8,0 C 86 % 1018,6 hPa 0,0 mm 7,5 km/h (2 Bft) W-SW 247 6,1 C 10,4 km/h (2 Bft)
07.05.2015 03:35 8,3 C 8,1 C 86 % 1018,8 hPa 0,0 mm 7,8 km/h (2 Bft) S-SO 157 6,1 C 15,3 km/h (3 Bft)
07.05.2015 03:40 8,4 C 8,1 C 85 % 1018,8 hPa 0,0 mm 8,5 km/h (2 Bft) SW 225 6,0 C 14,8 km/h (3 Bft)
07.05.2015 03:45 8,5 C 8,1 C 84 % 1018,8 hPa 0,0 mm 10,4 km/h (2 Bft) W-SW 247 6,0 C 13,7 km/h (3 Bft)
07.05.2015 03:50 8,5 C 8,2 C 84 % 1018,8 hPa 0,0 mm 9,3 km/h (2 Bft) SW 225 6,0 C 14,8 km/h (3 Bft)
07.05.2015 03:55 8,4 C 8,1 C 83 % 1018,7 hPa 0,0 mm 8,5 km/h (2 Bft) S 180 5,7 C 7,8 km/h (2 Bft)
07.05.2015 04:00 8,3 C 8,3 C 83 % 1018,7 hPa 0,0 mm 6,0 km/h (2 Bft) W 270 5,6 C 0,0 km/h (0 Bft)
07.05.2015 04:05 8,2 C 8,1 C 83 % 1018,7 hPa 0,0 mm 3,9 km/h (1 Bft) W-SW 247 5,5 C 4,1 km/h (1 Bft)
07.05.2015 04:10 8,0 C 7,9 C 83 % 1018,7 hPa 0,0 mm 2,8 km/h (1 Bft) SW 225 5,3 C 6,7 km/h (2 Bft)
07.05.2015 04:15 7,8 C 7,8 C 84 % 1018,7 hPa 0,0 mm 2,8 km/h (1 Bft) S 180 5,3 C 0,0 km/h (0 Bft)
07.05.2015 04:20 7,7 C 7,6 C 85 % 1018,7 hPa 0,0 mm 2,1 km/h (1 Bft) W-SW 247 5,3 C 6,7 km/h (2 Bft)
07.05.2015 04:25 7,7 C 7,6 C 86 % 1018,7 hPa 0,0 mm 1,8 km/h (1 Bft) S-SW 202 5,5 C 4,7 km/h (1 Bft)
07.05.2015 04:30 7,6 C 7,5 C 86 % 1018,7 hPa 0,0 mm 1,8 km/h (1 Bft) S 180 5,4 C 2,6 km/h (1 Bft)
07.05.2015 04:35 7,5 C 7,4 C 87 % 1018,7 hPa 0,0 mm 1,8 km/h (1 Bft) S-SO 157 5,5 C 0,0 km/h (0 Bft)
07.05.2015 04:40 7,5 C 7,4 C 87 % 1018,7 hPa 0,0 mm 0,8 km/h (0 Bft) S 180 5,5 C 0,0 km/h (0 Bft)
07.05.2015 04:45 7,4 C 7,3 C 87 % 1018,7 hPa 0,0 mm 0,5 km/h (0 Bft) S-SO 157 5,4 C 4,1 km/h (1 Bft)
07.05.2015 04:50 7,3 C 7,2 C 87 % 1018,7 hPa 0,0 mm 0,5 km/h (0 Bft) S 180 5,3 C 0,0 km/h (0 Bft)
07.05.2015 04:55 7,3 C 7,1 C 87 % 1018,7 hPa 0,0 mm 0,5 km/h (0 Bft) O-SO 112 5,3 C 0,0 km/h (0 Bft)
07.05.2015 05:00 7,3 C 7,1 C 88 % 1018,7 hPa 0,0 mm 0,0 km/h (0 Bft) SO 135 5,4 C 0,0 km/h (0 Bft)
07.05.2015 05:05 7,3 C 7,1 C 88 % 1018,7 hPa 0,0 mm 0,0 km/h (0 Bft) W-SW 247 5,4 C 0,0 km/h (0 Bft)
07.05.2015 05:10 7,3 C 7,1 C 88 % 1018,7 hPa 0,0 mm 0,0 km/h (0 Bft) S 180 5,4 C 0,0 km/h (0 Bft)
07.05.2015 05:15 7,3 C 7,1 C 88 % 1018,5 hPa 0,0 mm 0,0 km/h (0 Bft) W-SW 247 5,4 C 0,0 km/h (0 Bft)
07.05.2015 05:20 7,3 C 7,1 C 89 % 1018,5 hPa 0,0 mm 0,0 km/h (0 Bft) S-SO 157 5,6 C 0,0 km/h (0 Bft)
07.05.2015 05:25 7,3 C 7,1 C 89 % 1018,5 hPa 0,0 mm 0,3 km/h (0 Bft) SW 225 5,6 C 2,8 km/h (1 Bft)
07.05.2015 05:30 7,4 C 7,2 C 89 % 1018,5 hPa 0,0 mm 0,3 km/h (0 Bft) O-SO 112 5,7 C 0,0 km/h (0 Bft)
07.05.2015 05:35 7,4 C 7,2 C 89 % 1018,5 hPa 0,0 mm 0,3 km/h (0 Bft) SO 135 5,7 C 0,0 km/h (0 Bft)
07.05.2015 05:40 7,4 C 7,2 C 89 % 1018,5 hPa 0,0 mm 0,0 km/h (0 Bft) SO 135 5,7 C 0,0 km/h (0 Bft)
07.05.2015 05:45 7,4 C 7,2 C 89 % 1018,5 hPa 0,0 mm 0,0 km/h (0 Bft) O-SO 112 5,7 C 0,0 km/h (0 Bft)
07.05.2015 05:50 7,4 C 7,2 C 89 % 1018,5 hPa 0,0 mm 0,0 km/h (0 Bft) NW 315 5,7 C 0,0 km/h (0 Bft)
07.05.2015 05:55 7,3 C 7,2 C 85 % 1018,6 hPa 0,0 mm 0,0 km/h (0 Bft) NO 45 4,9 C 0,0 km/h (0 Bft)
07.05.2015 06:00 7,3 C 7,1 C 89 % 1018,6 hPa 0,0 mm 0,0 km/h (0 Bft) NW 315 5,6 C 0,0 km/h (0 Bft)
07.05.2015 06:05 7,3 C 7,2 C 85 % 1018,6 hPa 0,0 mm 0,0 km/h (0 Bft) N-NO 22 4,9 C 0,0 km/h (0 Bft)
07.05.2015 06:10 7,4 C 7,2 C 89 % 1018,6 hPa 0,0 mm 0,0 km/h (0 Bft) N-NW 337 5,7 C 0,0 km/h (0 Bft)
07.05.2015 06:15 7,4 C 7,2 C 89 % 1018,6 hPa 0,0 mm 0,5 km/h (0 Bft) O-SO 112 5,7 C 0,0 km/h (0 Bft)
07.05.2015 06:20 7,4 C 7,3 C 85 % 1018,6 hPa 0,0 mm 0,8 km/h (0 Bft) SW 225 5,0 C 0,0 km/h (0 Bft)
07.05.2015 06:25 7,5 C 7,3 C 89 % 1018,6 hPa 0,0 mm 0,3 km/h (0 Bft) O-SO 112 5,8 C 0,0 km/h (0 Bft)
07.05.2015 06:30 7,5 C 7,3 C 89 % 1018,6 hPa 0,0 mm 0,0 km/h (0 Bft) W 270 5,8 C 0,0 km/h (0 Bft)
07.05.2015 06:35 7,5 C 7,4 C 86 % 1018,8 hPa 0,0 mm 0,0 km/h (0 Bft) N-NO 22 5,3 C 0,0 km/h (0 Bft)
07.05.2015 06:40 7,5 C 7,5 C 86 % 1018,8 hPa 0,0 mm 0,0 km/h (0 Bft) O-SO 112 5,3 C 0,0 km/h (0 Bft)
07.05.2015 06:45 7,5 C 7,5 C 86 % 1018,8 hPa 0,0 mm 0,0 km/h (0 Bft) O-SO 112 5,3 C 0,0 km/h (0 Bft)
07.05.2015 06:50 7,6 C 7,5 C 86 % 1018,8 hPa 0,0 mm 0,0 km/h (0 Bft) O-SO 112 5,4 C 0,0 km/h (0 Bft)
07.05.2015 06:55 7,6 C 7,6 C 86 % 1018,8 hPa 0,0 mm 0,0 km/h (0 Bft) O-SO 112 5,4 C 0,0 km/h (0 Bft)
07.05.2015 07:00 7,7 C 7,7 C 86 % 1018,8 hPa 0,0 mm 0,0 km/h (0 Bft) O-NO 67 5,5 C 0,0 km/h (0 Bft)
07.05.2015 07:05 7,8 C 7,8 C 86 % 1018,8 hPa 0,0 mm 0,0 km/h (0 Bft) O-NO 67 5,6 C 0,0 km/h (0 Bft)
07.05.2015 07:10 7,8 C 7,9 C 86 % 1018,8 hPa 0,0 mm 0,0 km/h (0 Bft) O-SO 112 5,6 C 0,0 km/h (0 Bft)
07.05.2015 07:15 7,8 C 8,0 C 86 % 1018,8 hPa 0,0 mm 0,0 km/h (0 Bft) S-SO 157 5,6 C 0,0 km/h (0 Bft)
07.05.2015 07:20 8,0 C 8,1 C 86 % 1018,8 hPa 0,0 mm 0,0 km/h (0 Bft) W-SW 247 5,8 C 0,0 km/h (0 Bft)
07.05.2015 07:25 8,0 C 8,2 C 86 % 1018,8 hPa 0,0 mm 0,0 km/h (0 Bft) O-SO 112 5,8 C 0,0 km/h (0 Bft)
07.05.2015 07:30 8,1 C 8,4 C 86 % 1018,8 hPa 0,0 mm 0,0 km/h (0 Bft) NO 45 5,9 C 0,0 km/h (0 Bft)
07.05.2015 07:35 8,2 C 8,5 C 86 % 1019,0 hPa 0,0 mm 0,0 km/h (0 Bft) O-SO 112 6,0 C 0,0 km/h (0 Bft)
07.05.2015 07:40 8,4 C 8,7 C 86 % 1019,0 hPa 0,0 mm 0,3 km/h (0 Bft) O-SO 112 6,2 C 0,0 km/h (0 Bft)
07.05.2015 07:45 8,5 C 9,0 C 86 % 1019,0 hPa 0,0 mm 0,3 km/h (0 Bft) W 270 6,3 C 3,1 km/h (1 Bft)
07.05.2015 07:50 8,7 C 9,3 C 86 % 1019,0 hPa 0,0 mm 0,3 km/h (0 Bft) W-SW 247 6,5 C 2,8 km/h (1 Bft)
07.05.2015 07:55 8,8 C 9,6 C 86 % 1018,9 hPa 0,0 mm 1,0 km/h (0 Bft) O-NO 67 6,6 C 0,0 km/h (0 Bft)
07.05.2015 08:00 9,1 C 10,3 C 85 % 1018,9 hPa 0,0 mm 1,6 km/h (1 Bft) W 270 6,7 C 3,4 km/h (1 Bft)
07.05.2015 08:05 9,5 C 11,1 C 85 % 1018,9 hPa 0,0 mm 0,8 km/h (0 Bft) NW 315 7,1 C 3,6 km/h (1 Bft)
07.05.2015 08:10 10,0 C 12,3 C 85 % 1018,9 hPa 0,0 mm 0,5 km/h (0 Bft) SO 135 7,6 C 0,0 km/h (0 Bft)
07.05.2015 08:15 10,2 C 12,8 C 85 % 1019,0 hPa 0,0 mm 0,3 km/h (0 Bft) S-SO 157 7,8 C 0,0 km/h (0 Bft)
07.05.2015 08:20 10,8 C 14,2 C 84 % 1019,0 hPa 0,0 mm 0,0 km/h (0 Bft) SO 135 8,2 C 0,0 km/h (0 Bft)
07.05.2015 08:25 11,1 C 15,4 C 84 % 1019,0 hPa 0,0 mm 0,0 km/h (0 Bft) O-SO 112 8,5 C 0,0 km/h (0 Bft)
07.05.2015 08:30 11,4 C 16,6 C 83 % 1019,0 hPa 0,0 mm 0,5 km/h (0 Bft) SW 225 8,6 C 9,3 km/h (2 Bft)
07.05.2015 08:35 11,9 C 17,8 C 81 % 1018,9 hPa 0,0 mm 1,8 km/h (1 Bft) O-SO 112 8,7 C 0,0 km/h (0 Bft)
07.05.2015 08:40 11,8 C 18,6 C 79 % 1018,9 hPa 0,0 mm 4,7 km/h (1 Bft) W-SW 247 8,3 C 11,7 km/h (2 Bft)
07.05.2015 08:45 11,5 C 18,0 C 77 % 1018,9 hPa 0,0 mm 5,7 km/h (1 Bft) W-SW 247 7,6 C 4,9 km/h (1 Bft)
07.05.2015 08:50 12,0 C 17,9 C 77 % 1018,9 hPa 0,0 mm 5,2 km/h (1 Bft) W 270 8,1 C 5,2 km/h (1 Bft)
07.05.2015 08:55 12,1 C 17,8 C 76 % 1019,2 hPa 0,0 mm 2,8 km/h (1 Bft) O 90 8,0 C 4,1 km/h (1 Bft)
07.05.2015 09:00 12,8 C 18,4 C 75 % 1019,2 hPa 0,0 mm 4,7 km/h (1 Bft) W-NW 292 8,5 C 5,2 km/h (1 Bft)
07.05.2015 09:05 12,6 C 18,4 C 74 % 1019,2 hPa 0,0 mm 4,7 km/h (1 Bft) SW 225 8,1 C 6,2 km/h (2 Bft)
07.05.2015 09:10 12,4 C 17,1 C 74 % 1019,2 hPa 0,0 mm 3,1 km/h (1 Bft) W-SW 247 7,9 C 6,5 km/h (2 Bft)
07.05.2015 09:15 12,3 C 16,6 C 73 % 1019,4 hPa 0,0 mm 3,1 km/h (1 Bft) NW 315 7,6 C 0,0 km/h (0 Bft)
07.05.2015 09:20 12,3 C 16,1 C 72 % 1019,4 hPa 0,0 mm 3,9 km/h (1 Bft) W-NW 292 7,4 C 6,0 km/h (2 Bft)
07.05.2015 09:25 12,6 C 16,7 C 72 % 1019,4 hPa 0,0 mm 3,4 km/h (1 Bft) NW 315 7,7 C 7,3 km/h (2 Bft)
07.05.2015 09:30 12,7 C 17,2 C 71 % 1019,4 hPa 0,0 mm 3,9 km/h (1 Bft) NW 315 7,6 C 0,0 km/h (0 Bft)
07.05.2015 09:35 12,7 C 17,1 C 71 % 1019,7 hPa 0,0 mm 4,4 km/h (1 Bft) NW 315 7,6 C 6,0 km/h (2 Bft)
07.05.2015 09:40 12,8 C 17,4 C 69 % 1019,7 hPa 0,0 mm 3,1 km/h (1 Bft) W-SW 247 7,3 C 4,9 km/h (1 Bft)
07.05.2015 09:45 12,8 C 17,4 C 69 % 1019,7 hPa 0,0 mm 2,6 km/h (1 Bft) W-SW 247 7,3 C 3,9 km/h (1 Bft)
07.05.2015 09:50 13,0 C 17,6 C 68 % 1019,7 hPa 0,0 mm 3,1 km/h (1 Bft) W-SW 247 7,2 C 0,0 km/h (0 Bft)
07.05.2015 09:55 13,0 C 17,7 C 68 % 1019,6 hPa 0,0 mm 3,1 km/h (1 Bft) W-SW 247 7,2 C 0,0 km/h (0 Bft)
07.05.2015 10:00 12,8 C 17,6 C 68 % 1019,6 hPa 0,0 mm 4,7 km/h (1 Bft) W-SW 247 7,0 C 11,7 km/h (2 Bft)
07.05.2015 10:05 13,1 C 17,8 C 67 % 1019,6 hPa 0,0 mm 6,7 km/h (2 Bft) NW 315 7,1 C 9,8 km/h (2 Bft)
07.05.2015 10:10 12,8 C 16,8 C 67 % 1019,6 hPa 0,0 mm 7,3 km/h (2 Bft) W 270 6,8 C 14,8 km/h (3 Bft)
07.05.2015 10:15 12,9 C 16,1 C 67 % 1019,9 hPa 0,0 mm 8,3 km/h (2 Bft) N-NW 337 6,9 C 6,7 km/h (2 Bft)
07.05.2015 10:20 13,8 C 17,7 C 66 % 1019,9 hPa 0,0 mm 9,1 km/h (2 Bft) W-NW 292 7,6 C 11,7 km/h (2 Bft)
07.05.2015 10:25 13,8 C 18,5 C 65 % 1019,9 hPa 0,0 mm 8,3 km/h (2 Bft) W-NW 292 7,3 C 6,7 km/h (2 Bft)
07.05.2015 10:30 13,5 C 18,0 C 65 % 1019,9 hPa 0,0 mm 6,7 km/h (2 Bft) NW 315 7,1 C 11,7 km/h (2 Bft)
07.05.2015 10:35 13,5 C 18,0 C 65 % 1019,8 hPa 0,0 mm 6,0 km/h (2 Bft) W 270 7,1 C 6,2 km/h (2 Bft)
07.05.2015 10:40 13,5 C 17,4 C 65 % 1019,8 hPa 0,0 mm 6,0 km/h (2 Bft) W-NW 292 7,1 C 7,3 km/h (2 Bft)
07.05.2015 10:45 13,4 C 17,0 C 65 % 1019,8 hPa 0,0 mm 6,0 km/h (2 Bft) NW 315 7,0 C 9,6 km/h (2 Bft)
07.05.2015 10:50 13,1 C 16,2 C 65 % 1019,8 hPa 0,0 mm 8,3 km/h (2 Bft) NW 315 6,7 C 9,3 km/h (2 Bft)
07.05.2015 10:55 13,0 C 15,7 C 65 % 1019,8 hPa 0,0 mm 8,8 km/h (2 Bft) W 270 6,6 C 12,2 km/h (2 Bft)
07.05.2015 11:00 13,4 C 16,4 C 65 % 1019,8 hPa 0,0 mm 9,6 km/h (2 Bft) S-SW 202 7,0 C 12,9 km/h (3 Bft)
07.05.2015 11:05 13,5 C 16,7 C 64 % 1019,8 hPa 0,0 mm 9,6 km/h (2 Bft) W 270 6,8 C 7,0 km/h (2 Bft)
07.05.2015 11:10 13,8 C 18,1 C 63 % 1019,8 hPa 0,0 mm 7,0 km/h (2 Bft) N-NO 22 6,9 C 9,3 km/h (2 Bft)
07.05.2015 11:15 13,8 C 18,0 C 63 % 1019,6 hPa 0,0 mm 5,7 km/h (1 Bft) N-NO 22 6,9 C 5,7 km/h (1 Bft)
07.05.2015 11:20 13,5 C 16,8 C 63 % 1019,6 hPa 0,0 mm 6,2 km/h (2 Bft) NW 315 6,6 C 7,5 km/h (2 Bft)
07.05.2015 11:25 13,4 C 16,6 C 63 % 1019,6 hPa 0,0 mm 5,7 km/h (1 Bft) NW 315 6,5 C 3,9 km/h (1 Bft)
07.05.2015 11:30 13,1 C 15,8 C 63 % 1019,6 hPa 0,0 mm 6,7 km/h (2 Bft) W 270 6,2 C 12,4 km/h (3 Bft)
07.05.2015 11:35 12,9 C 15,5 C 64 % 1019,6 hPa 0,0 mm 6,5 km/h (2 Bft) W 270 6,3 C 7,8 km/h (2 Bft)
07.05.2015 11:40 13,0 C 15,7 C 64 % 1019,6 hPa 0,0 mm 4,1 km/h (1 Bft) W 270 6,4 C 8,3 km/h (2 Bft)
07.05.2015 11:45 13,1 C 16,0 C 64 % 1019,6 hPa 0,0 mm 3,4 km/h (1 Bft) N-NW 337 6,4 C 5,4 km/h (1 Bft)
07.05.2015 11:50 13,6 C 17,5 C 63 % 1019,6 hPa 0,0 mm 3,4 km/h (1 Bft) N-NO 22 6,7 C 4,4 km/h (1 Bft)
07.05.2015 11:55 13,7 C 18,1 C 62 % 1019,5 hPa 0,0 mm 3,6 km/h (1 Bft) W 270 6,6 C 6,0 km/h (2 Bft)
07.05.2015 12:00 14,3 C 19,4 C 62 % 1019,5 hPa 0,0 mm 7,5 km/h (2 Bft) NW 315 7,1 C 19,9 km/h (4 Bft)
07.05.2015 12:05 14,0 C 18,8 C 62 % 1019,5 hPa 0,0 mm 8,3 km/h (2 Bft) W 270 6,8 C 8,5 km/h (2 Bft)
07.05.2015 12:10 13,5 C 16,5 C 63 % 1019,5 hPa 0,0 mm 10,1 km/h (2 Bft) NW 315 6,6 C 7,3 km/h (2 Bft)
07.05.2015 12:15 13,3 C 15,7 C 63 % 1019,5 hPa 0,0 mm 8,3 km/h (2 Bft) W 270 6,4 C 4,7 km/h (1 Bft)
07.05.2015 12:20 13,6 C 15,8 C 63 % 1019,5 hPa 0,0 mm 7,0 km/h (2 Bft) N-NO 22 6,7 C 5,2 km/h (1 Bft)
07.05.2015 12:25 13,6 C 16,4 C 62 % 1019,5 hPa 0,0 mm 7,0 km/h (2 Bft) N-NO 22 6,5 C 7,8 km/h (2 Bft)
07.05.2015 12:30 13,4 C 16,1 C 62 % 1019,5 hPa 0,0 mm 7,5 km/h (2 Bft) W-SW 247 6,3 C 6,7 km/h (2 Bft)
07.05.2015 12:35 13,4 C 16,1 C 63 % 1019,8 hPa 0,0 mm 5,7 km/h (1 Bft) W 270 6,5 C 10,6 km/h (2 Bft)
07.05.2015 12:40 13,6 C 16,5 C 63 % 1019,8 hPa 0,0 mm 5,4 km/h (1 Bft) W-NW 292 6,7 C 9,8 km/h (2 Bft)
07.05.2015 12:45 13,7 C 16,5 C 63 % 1019,8 hPa 0,0 mm 7,0 km/h (2 Bft) N-NW 337 6,8 C 5,7 km/h (1 Bft)
07.05.2015 12:50 14,5 C 17,4 C 62 % 1019,8 hPa 0,0 mm 9,8 km/h (2 Bft) S-SW 202 7,3 C 11,4 km/h (2 Bft)
07.05.2015 12:55 14,4 C 17,1 C 61 % 1019,1 hPa 0,0 mm 10,4 km/h (2 Bft) W 270 7,0 C 6,5 km/h (2 Bft)
07.05.2015 13:00 14,3 C 17,2 C 62 % 1019,1 hPa 0,0 mm 8,0 km/h (2 Bft) N-NW 337 7,1 C 6,0 km/h (2 Bft)
07.05.2015 13:05 14,1 C 17,1 C 62 % 1019,1 hPa 0,0 mm 6,0 km/h (2 Bft) W 270 6,9 C 11,4 km/h (2 Bft)
07.05.2015 13:10 14,0 C 16,6 C 62 % 1019,1 hPa 0,0 mm 3,4 km/h (1 Bft) SO 135 6,8 C 2,8 km/h (1 Bft)
07.05.2015 13:15 14,5 C 18,0 C 61 % 1019,3 hPa 0,0 mm 3,4 km/h (1 Bft) N-NO 22 7,1 C 5,2 km/h (1 Bft)
07.05.2015 13:20 15,4 C 20,3 C 61 % 1019,3 hPa 0,0 mm 4,1 km/h (1 Bft) W-SW 247 7,9 C 5,4 km/h (1 Bft)
07.05.2015 13:25 15,8 C 21,5 C 61 % 1019,3 hPa 0,0 mm 5,2 km/h (1 Bft) NW 315 8,3 C 7,8 km/h (2 Bft)
07.05.2015 13:30 15,2 C 19,3 C 60 % 1019,3 hPa 0,0 mm 5,7 km/h (1 Bft) NW 315 7,5 C 9,3 km/h (2 Bft)
07.05.2015 13:35 14,9 C 18,3 C 61 % 1019,2 hPa 0,0 mm 6,7 km/h (2 Bft) NW 315 7,4 C 10,1 km/h (2 Bft)
07.05.2015 13:40 14,7 C 17,7 C 60 % 1019,2 hPa 0,0 mm 6,7 km/h (2 Bft) NW 315 7,0 C 5,4 km/h (1 Bft)
07.05.2015 13:45 14,5 C 17,2 C 60 % 1019,2 hPa 0,0 mm 7,0 km/h (2 Bft) NW 315 6,8 C 8,0 km/h (2 Bft)
07.05.2015 13:50 14,6 C 17,2 C 60 % 1019,2 hPa 0,0 mm 4,1 km/h (1 Bft) N-NW 337 6,9 C 4,4 km/h (1 Bft)
07.05.2015 13:55 14,9 C 17,6 C 60 % 1019,2 hPa 0,0 mm 3,4 km/h (1 Bft) NW 315 7,2 C 8,8 km/h (2 Bft)
07.05.2015 14:00 14,9 C 18,0 C 60 % 1019,2 hPa 0,0 mm 5,4 km/h (1 Bft) W 270 7,2 C 8,8 km/h (2 Bft)
07.05.2015 14:05 15,0 C 18,3 C 59 % 1019,2 hPa 0,0 mm 6,2 km/h (2 Bft) N 360 7,1 C 7,8 km/h (2 Bft)
07.05.2015 14:10 14,9 C 18,3 C 59 % 1019,2 hPa 0,0 mm 7,0 km/h (2 Bft) N-NW 337 7,0 C 5,7 km/h (1 Bft)
07.05.2015 14:15 14,9 C 18,1 C 59 % 1019,0 hPa 0,0 mm 5,7 km/h (1 Bft) N-NW 337 7,0 C 0,0 km/h (0 Bft)
07.05.2015 14:20 14,9 C 18,2 C 59 % 1019,0 hPa 0,0 mm 4,1 km/h (1 Bft) O-NO 67 7,0 C 6,2 km/h (2 Bft)
07.05.2015 14:25 14,8 C 18,0 C 59 % 1019,0 hPa 0,0 mm 6,7 km/h (2 Bft) NW 315 6,9 C 8,0 km/h (2 Bft)
07.05.2015 14:30 14,9 C 17,7 C 59 % 1019,0 hPa 0,0 mm 7,5 km/h (2 Bft) N-NO 22 7,0 C 2,6 km/h (1 Bft)
07.05.2015 14:35 15,0 C 18,0 C 58 % 1018,9 hPa 0,0 mm 6,0 km/h (2 Bft) NW 315 6,8 C 8,3 km/h (2 Bft)
07.05.2015 14:40 15,2 C 18,4 C 58 % 1018,9 hPa 0,0 mm 5,2 km/h (1 Bft) N-NO 22 7,0 C 6,2 km/h (2 Bft)
07.05.2015 14:45 15,3 C 18,4 C 59 % 1018,9 hPa 0,0 mm 5,4 km/h (1 Bft) N-NW 337 7,3 C 7,0 km/h (2 Bft)
07.05.2015 14:50 15,2 C 17,7 C 59 % 1018,9 hPa 0,0 mm 7,0 km/h (2 Bft) NW 315 7,2 C 4,9 km/h (1 Bft)
07.05.2015 14:55 15,6 C 17,9 C 59 % 1018,7 hPa 0,0 mm 6,7 km/h (2 Bft) NW 315 7,6 C 0,0 km/h (0 Bft)
07.05.2015 15:00 15,5 C 19,0 C 58 % 1018,7 hPa 0,0 mm 4,4 km/h (1 Bft) NO 45 7,3 C 6,0 km/h (2 Bft)
07.05.2015 15:05 15,4 C 18,8 C 58 % 1018,7 hPa 0,0 mm 4,9 km/h (1 Bft) O 90 7,2 C 4,4 km/h (1 Bft)
07.05.2015 15:10 15,2 C 18,5 C 58 % 1018,7 hPa 0,0 mm 4,9 km/h (1 Bft) O-NO 67 7,0 C 0,0 km/h (0 Bft)
07.05.2015 15:15 15,8 C 19,7 C 58 % 1018,6 hPa 0,0 mm 4,9 km/h (1 Bft) N-NW 337 7,6 C 7,3 km/h (2 Bft)
07.05.2015 15:20 15,9 C 20,5 C 58 % 1018,6 hPa 0,0 mm 3,4 km/h (1 Bft) N-NW 337 7,6 C 7,5 km/h (2 Bft)
07.05.2015 15:25 16,1 C 20,0 C 57 % 1018,6 hPa 0,0 mm 3,9 km/h (1 Bft) NW 315 7,6 C 4,9 km/h (1 Bft)
07.05.2015 15:30 16,0 C 19,7 C 57 % 1018,6 hPa 0,0 mm 3,6 km/h (1 Bft) O-NO 67 7,5 C 4,1 km/h (1 Bft)
07.05.2015 15:35 15,8 C 19,6 C 57 % 1018,5 hPa 0,0 mm 1,8 km/h (1 Bft) W 270 7,3 C 0,0 km/h (0 Bft)
07.05.2015 15:40 15,6 C 19,4 C 57 % 1018,5 hPa 0,0 mm 0,8 km/h (0 Bft) SO 135 7,1 C 0,0 km/h (0 Bft)
07.05.2015 15:45 15,7 C 19,2 C 57 % 1018,5 hPa 0,0 mm 1,8 km/h (1 Bft) NO 45 7,2 C 7,8 km/h (2 Bft)
07.05.2015 15:50 15,5 C 18,6 C 57 % 1018,5 hPa 0,0 mm 3,9 km/h (1 Bft) O-NO 67 7,0 C 0,0 km/h (0 Bft)
07.05.2015 15:55 15,4 C 18,2 C 57 % 1018,4 hPa 0,0 mm 4,4 km/h (1 Bft) SO 135 6,9 C 0,0 km/h (0 Bft)
07.05.2015 16:00 15,3 C 18,2 C 57 % 1018,4 hPa 0,0 mm 2,6 km/h (1 Bft) S-SO 157 6,8 C 3,1 km/h (1 Bft)
07.05.2015 16:05 15,5 C 18,4 C 57 % 1018,4 hPa 0,0 mm 2,1 km/h (1 Bft) O-SO 112 7,0 C 2,8 km/h (1 Bft)
07.05.2015 16:10 15,8 C 20,9 C 57 % 1018,4 hPa 0,0 mm 1,8 km/h (1 Bft) S-SO 157 7,3 C 5,4 km/h (1 Bft)
07.05.2015 16:15 15,8 C 22,5 C 57 % 1018,1 hPa 0,0 mm 3,6 km/h (1 Bft) N-NW 337 7,3 C 7,8 km/h (2 Bft)
07.05.2015 16:20 15,7 C 23,1 C 56 % 1018,1 hPa 0,0 mm 5,7 km/h (1 Bft) O-NO 67 6,9 C 7,0 km/h (2 Bft)
07.05.2015 16:25 15,7 C 22,7 C 55 % 1018,1 hPa 0,0 mm 6,7 km/h (2 Bft) O-SO 112 6,7 C 9,3 km/h (2 Bft)
07.05.2015 16:30 15,7 C 23,0 C 55 % 1018,1 hPa 0,0 mm 6,7 km/h (2 Bft) W-SW 247 6,7 C 5,2 km/h (1 Bft)
07.05.2015 16:35 15,7 C 23,6 C 55 % 1018,4 hPa 0,0 mm 5,2 km/h (1 Bft) O-NO 67 6,7 C 6,2 km/h (2 Bft)
07.05.2015 16:40 15,6 C 21,8 C 54 % 1018,4 hPa 0,0 mm 5,7 km/h (1 Bft) O-NO 67 6,3 C 5,4 km/h (1 Bft)
07.05.2015 16:45 15,6 C 20,2 C 55 % 1018,4 hPa 0,0 mm 6,0 km/h (2 Bft) O-SO 112 6,6 C 3,1 km/h (1 Bft)
07.05.2015 16:50 15,5 C 18,8 C 55 % 1018,4 hPa 0,0 mm 3,9 km/h (1 Bft) O 90 6,5 C 5,7 km/h (1 Bft)
07.05.2015 16:55 15,4 C 18,1 C 55 % 1017,8 hPa 0,0 mm 3,6 km/h (1 Bft) O-NO 67 6,4 C 5,7 km/h (1 Bft)
07.05.2015 17:00 15,4 C 17,2 C 56 % 1017,8 hPa 0,0 mm 4,4 km/h (1 Bft) NW 315 6,7 C 10,6 km/h (2 Bft)
07.05.2015 17:05 15,4 C 16,8 C 56 % 1017,8 hPa 0,0 mm 3,9 km/h (1 Bft) NW 315 6,7 C 0,0 km/h (0 Bft)
07.05.2015 17:10 15,3 C 16,5 C 56 % 1017,8 hPa 0,0 mm 3,1 km/h (1 Bft) O-NO 67 6,6 C 5,4 km/h (1 Bft)
07.05.2015 17:15 15,2 C 16,3 C 56 % 1017,9 hPa 0,0 mm 2,1 km/h (1 Bft) O-NO 67 6,5 C 0,0 km/h (0 Bft)
07.05.2015 17:20 15,0 C 16,0 C 56 % 1017,9 hPa 0,0 mm 2,8 km/h (1 Bft) N-NO 22 6,3 C 5,2 km/h (1 Bft)
07.05.2015 17:25 15,1 C 16,1 C 56 % 1017,9 hPa 0,0 mm 3,1 km/h (1 Bft) O-NO 67 6,4 C 5,4 km/h (1 Bft)
07.05.2015 17:30 15,3 C 16,5 C 56 % 1017,9 hPa 0,0 mm 4,4 km/h (1 Bft) NO 45 6,6 C 6,7 km/h (2 Bft)
07.05.2015 17:35 15,4 C 16,6 C 56 % 1017,6 hPa 0,0 mm 4,1 km/h (1 Bft) N-NO 22 6,7 C 8,0 km/h (2 Bft)
07.05.2015 17:40 15,4 C 16,9 C 56 % 1017,6 hPa 0,0 mm 3,6 km/h (1 Bft) NW 315 6,7 C 4,4 km/h (1 Bft)
07.05.2015 17:45 15,5 C 16,8 C 56 % 1017,6 hPa 0,0 mm 4,1 km/h (1 Bft) N-NO 22 6,8 C 10,4 km/h (2 Bft)
07.05.2015 17:50 15,4 C 16,5 C 56 % 1017,6 hPa 0,0 mm 6,2 km/h (2 Bft) NO 45 6,7 C 7,5 km/h (2 Bft)
07.05.2015 17:55 15,4 C 16,4 C 56 % 1017,5 hPa 0,0 mm 6,2 km/h (2 Bft) NO 45 6,7 C 7,8 km/h (2 Bft)
07.05.2015 18:00 15,4 C 16,4 C 56 % 1017,5 hPa 0,0 mm 4,9 km/h (1 Bft) O 90 6,7 C 0,0 km/h (0 Bft)
07.05.2015 18:05 15,4 C 16,4 C 56 % 1017,5 hPa 0,0 mm 4,1 km/h (1 Bft) O-NO 67 6,7 C 8,8 km/h (2 Bft)
07.05.2015 18:10 15,2 C 16,3 C 57 % 1017,5 hPa 0,0 mm 3,1 km/h (1 Bft) O-NO 67 6,7 C 4,4 km/h (1 Bft)
07.05.2015 18:15 15,1 C 16,1 C 57 % 1017,5 hPa 0,0 mm 3,6 km/h (1 Bft) NO 45 6,6 C 4,9 km/h (1 Bft)
07.05.2015 18:20 14,9 C 15,7 C 58 % 1017,5 hPa 0,0 mm 2,6 km/h (1 Bft) O-NO 67 6,7 C 0,0 km/h (0 Bft)
07.05.2015 18:25 14,7 C 15,5 C 58 % 1017,5 hPa 0,0 mm 1,8 km/h (1 Bft) O-NO 67 6,5 C 3,6 km/h (1 Bft)
07.05.2015 18:30 14,4 C 15,2 C 59 % 1017,5 hPa 0,0 mm 1,0 km/h (0 Bft) O-NO 67 6,5 C 0,0 km/h (0 Bft)
07.05.2015 18:35 14,2 C 15,1 C 59 % 1017,6 hPa 0,0 mm 0,8 km/h (0 Bft) O-SO 112 6,3 C 0,0 km/h (0 Bft)
07.05.2015 18:40 14,1 C 14,9 C 59 % 1017,6 hPa 0,0 mm 0,3 km/h (0 Bft) SO 135 6,2 C 0,0 km/h (0 Bft)
07.05.2015 18:45 14,0 C 14,7 C 59 % 1017,6 hPa 0,0 mm 0,3 km/h (0 Bft) O-SO 112 6,1 C 0,0 km/h (0 Bft)
07.05.2015 18:50 14,0 C 14,6 C 60 % 1017,6 hPa 0,0 mm 0,3 km/h (0 Bft) O-SO 112 6,4 C 0,0 km/h (0 Bft)
07.05.2015 18:55 14,0 C 14,5 C 60 % 1017,4 hPa 0,0 mm 0,0 km/h (0 Bft) O-SO 112 6,4 C 0,0 km/h (0 Bft)
07.05.2015 19:00 13,9 C 14,4 C 60 % 1017,4 hPa 0,0 mm 0,3 km/h (0 Bft) S 180 6,3 C 0,0 km/h (0 Bft)
07.05.2015 19:05 13,9 C 14,4 C 61 % 1017,4 hPa 0,0 mm 0,5 km/h (0 Bft) SO 135 6,5 C 3,1 km/h (1 Bft)
07.05.2015 19:10 13,8 C 14,4 C 62 % 1017,4 hPa 0,0 mm 0,8 km/h (0 Bft) S-SO 157 6,6 C 3,1 km/h (1 Bft)
07.05.2015 19:15 13,6 C 14,4 C 63 % 1017,4 hPa 0,0 mm 0,8 km/h (0 Bft) S 180 6,7 C 0,0 km/h (0 Bft)
07.05.2015 19:20 13,4 C 14,1 C 64 % 1017,4 hPa 0,0 mm 0,8 km/h (0 Bft) S-SO 157 6,7 C 0,0 km/h (0 Bft)
07.05.2015 19:25 13,3 C 13,9 C 64 % 1017,4 hPa 0,0 mm 1,0 km/h (0 Bft) S 180 6,6 C 3,4 km/h (1 Bft)
07.05.2015 19:30 13,0 C 13,6 C 65 % 1017,4 hPa 0,0 mm 1,6 km/h (1 Bft) S 180 6,6 C 0,0 km/h (0 Bft)
07.05.2015 19:35 13,0 C 13,5 C 65 % 1017,4 hPa 0,0 mm 1,0 km/h (0 Bft) SO 135 6,6 C 0,0 km/h (0 Bft)
07.05.2015 19:40 12,9 C 13,4 C 66 % 1017,4 hPa 0,0 mm 0,5 km/h (0 Bft) SO 135 6,7 C 0,0 km/h (0 Bft)
07.05.2015 19:45 12,9 C 13,3 C 65 % 1017,4 hPa 0,0 mm 0,3 km/h (0 Bft) S 180 6,5 C 0,0 km/h (0 Bft)
07.05.2015 19:50 12,7 C 13,0 C 66 % 1017,4 hPa 0,0 mm 0,3 km/h (0 Bft) S 180 6,5 C 0,0 km/h (0 Bft)
07.05.2015 19:55 12,6 C 12,7 C 67 % 1017,5 hPa 0,0 mm 0,3 km/h (0 Bft) S 180 6,6 C 0,0 km/h (0 Bft)
07.05.2015 20:00 12,4 C 12,6 C 67 % 1017,5 hPa 0,0 mm 1,3 km/h (1 Bft) S-SO 157 6,4 C 2,8 km/h (1 Bft)
07.05.2015 20:05 12,4 C 12,5 C 67 % 1017,5 hPa 0,0 mm 1,6 km/h (1 Bft) S-SO 157 6,4 C 0,0 km/h (0 Bft)
07.05.2015 20:10 12,3 C 12,3 C 66 % 1017,5 hPa 0,0 mm 0,3 km/h (0 Bft) S-SO 157 6,1 C 0,0 km/h (0 Bft)
07.05.2015 20:15 12,0 C 12,1 C 67 % 1017,8 hPa 0,0 mm 0,0 km/h (0 Bft) S 180 6,1 C 0,0 km/h (0 Bft)
07.05.2015 20:20 11,6 C 11,7 C 68 % 1017,8 hPa 0,0 mm 0,0 km/h (0 Bft) O-SO 112 5,9 C 0,0 km/h (0 Bft)
07.05.2015 20:25 11,2 C 11,3 C 68 % 1017,8 hPa 0,0 mm 0,0 km/h (0 Bft) S-SO 157 5,5 C 0,0 km/h (0 Bft)
07.05.2015 20:30 11,1 C 11,1 C 69 % 1017,8 hPa 0,0 mm 0,0 km/h (0 Bft) SO 135 5,6 C 0,0 km/h (0 Bft)
07.05.2015 20:35 11,1 C 11,0 C 69 % 1017,7 hPa 0,0 mm 0,0 km/h (0 Bft) S-SO 157 5,6 C 0,0 km/h (0 Bft)
07.05.2015 20:40 11,1 C 10,9 C 69 % 1017,7 hPa 0,0 mm 0,8 km/h (0 Bft) S-SO 157 5,6 C 3,6 km/h (1 Bft)
07.05.2015 20:45 11,0 C 10,8 C 69 % 1017,7 hPa 0,0 mm 0,8 km/h (0 Bft) S-SO 157 5,5 C 0,0 km/h (0 Bft)
07.05.2015 20:50 10,7 C 10,5 C 70 % 1017,7 hPa 0,0 mm 0,3 km/h (0 Bft) SO 135 5,5 C 0,0 km/h (0 Bft)
07.05.2015 20:55 10,6 C 10,5 C 70 % 1017,9 hPa 0,0 mm 0,3 km/h (0 Bft) S-SO 157 5,4 C 2,8 km/h (1 Bft)
07.05.2015 21:00 10,5 C 10,4 C 70 % 1017,9 hPa 0,0 mm 0,3 km/h (0 Bft) SO 135 5,3 C 0,0 km/h (0 Bft)
07.05.2015 21:05 9,7 C 9,7 C 70 % 1017,9 hPa 0,0 mm 0,3 km/h (0 Bft) S 180 4,5 C 0,0 km/h (0 Bft)
07.05.2015 21:10 9,4 C 9,4 C 71 % 1017,9 hPa 0,0 mm 0,0 km/h (0 Bft) S-SO 157 4,4 C 0,0 km/h (0 Bft)
07.05.2015 21:15 9,3 C 9,5 C 71 % 1018,0 hPa 0,0 mm 0,0 km/h (0 Bft) S-SO 157 4,3 C 0,0 km/h (0 Bft)
07.05.2015 21:20 9,3 C 9,4 C 72 % 1018,0 hPa 0,0 mm 0,0 km/h (0 Bft) SO 135 4,5 C 0,0 km/h (0 Bft)
07.05.2015 21:25 9,2 C 9,1 C 73 % 1018,0 hPa 0,0 mm 0,0 km/h (0 Bft) S 180 4,6 C 0,0 km/h (0 Bft)
07.05.2015 21:30 9,0 C 9,0 C 74 % 1018,0 hPa 0,0 mm 0,0 km/h (0 Bft) S-SO 157 4,6 C 0,0 km/h (0 Bft)
07.05.2015 21:35 8,9 C 8,9 C 74 % 1018,1 hPa 0,0 mm 0,0 km/h (0 Bft) S 180 4,5 C 0,0 km/h (0 Bft)
07.05.2015 21:40 9,0 C 9,1 C 74 % 1018,1 hPa 0,0 mm 0,3 km/h (0 Bft) S-SO 157 4,6 C 0,0 km/h (0 Bft)
07.05.2015 21:45 8,8 C 9,0 C 74 % 1018,1 hPa 0,0 mm 0,3 km/h (0 Bft) SO 135 4,4 C 0,0 km/h (0 Bft)
07.05.2015 21:50 8,4 C 8,6 C 74 % 1018,1 hPa 0,0 mm 0,0 km/h (0 Bft) O 90 4,0 C 0,0 km/h (0 Bft)
07.05.2015 21:55 8,3 C 8,5 C 75 % 1018,1 hPa 0,0 mm 0,0 km/h (0 Bft) S 180 4,1 C 0,0 km/h (0 Bft)
07.05.2015 22:00 8,3 C 8,4 C 76 % 1018,1 hPa 0,0 mm 0,0 km/h (0 Bft) SO 135 4,3 C 0,0 km/h (0 Bft)
07.05.2015 22:05 8,6 C 8,5 C 77 % 1018,1 hPa 0,0 mm 0,0 km/h (0 Bft) SO 135 4,8 C 0,0 km/h (0 Bft)
07.05.2015 22:10 8,5 C 8,4 C 76 % 1018,1 hPa 0,0 mm 0,0 km/h (0 Bft) O-NO 67 4,5 C 0,0 km/h (0 Bft)
07.05.2015 22:15 8,2 C 8,0 C 76 % 1018,0 hPa 0,0 mm 0,0 km/h (0 Bft) S 180 4,2 C 0,0 km/h (0 Bft)
07.05.2015 22:20 8,1 C 7,8 C 76 % 1018,0 hPa 0,0 mm 0,0 km/h (0 Bft) O-NO 67 4,1 C 0,0 km/h (0 Bft)
07.05.2015 22:25 7,9 C 7,6 C 76 % 1018,0 hPa 0,0 mm 0,0 km/h (0 Bft) S-SW 202 3,9 C 0,0 km/h (0 Bft)
07.05.2015 22:30 7,8 C 7,5 C 77 % 1018,0 hPa 0,0 mm 0,0 km/h (0 Bft) SW 225 4,0 C 0,0 km/h (0 Bft)
07.05.2015 22:35 7,6 C 7,3 C 77 % 1018,0 hPa 0,0 mm 0,0 km/h (0 Bft) N-NO 22 3,8 C 0,0 km/h (0 Bft)
07.05.2015 22:40 7,6 C 7,3 C 77 % 1018,0 hPa 0,0 mm 0,0 km/h (0 Bft) NW 315 3,8 C 0,0 km/h (0 Bft)
07.05.2015 22:45 7,7 C 7,3 C 79 % 1018,0 hPa 0,0 mm 0,0 km/h (0 Bft) S 180 4,3 C 0,0 km/h (0 Bft)
07.05.2015 22:50 7,6 C 7,2 C 79 % 1018,0 hPa 0,0 mm 0,0 km/h (0 Bft) S 180 4,2 C 0,0 km/h (0 Bft)
07.05.2015 22:55 7,7 C 7,3 C 79 % 1017,8 hPa 0,0 mm 0,0 km/h (0 Bft) S 180 4,3 C 0,0 km/h (0 Bft)
07.05.2015 23:00 7,6 C 7,2 C 79 % 1017,8 hPa 0,0 mm 0,0 km/h (0 Bft) S 180 4,2 C 0,0 km/h (0 Bft)
07.05.2015 23:05 7,5 C 7,2 C 78 % 1017,8 hPa 0,0 mm 0,0 km/h (0 Bft) O-SO 112 3,9 C 0,0 km/h (0 Bft)
07.05.2015 23:10 7,5 C 7,3 C 79 % 1017,8 hPa 0,0 mm 0,0 km/h (0 Bft) O 90 4,1 C 0,0 km/h (0 Bft)
07.05.2015 23:15 7,4 C 7,2 C 79 % 1017,6 hPa 0,0 mm 0,0 km/h (0 Bft) SO 135 4,0 C 0,0 km/h (0 Bft)
07.05.2015 23:20 7,2 C 7,0 C 80 % 1017,6 hPa 0,0 mm 0,0 km/h (0 Bft) O 90 4,0 C 0,0 km/h (0 Bft)
07.05.2015 23:25 7,2 C 6,9 C 80 % 1017,6 hPa 0,0 mm 0,0 km/h (0 Bft) S 180 4,0 C 0,0 km/h (0 Bft)
07.05.2015 23:30 7,2 C 7,0 C 80 % 1017,6 hPa 0,0 mm 0,0 km/h (0 Bft) S-SO 157 4,0 C 3,4 km/h (1 Bft)
07.05.2015 23:35 7,4 C 7,2 C 80 % 1017,6 hPa 0,0 mm 0,0 km/h (0 Bft) S-SO 157 4,2 C 0,0 km/h (0 Bft)
07.05.2015 23:40 7,4 C 7,3 C 80 % 1017,6 hPa 0,0 mm 0,3 km/h (0 Bft) S-SO 157 4,2 C 0,0 km/h (0 Bft)
07.05.2015 23:45 7,2 C 7,0 C 80 % 1017,6 hPa 0,0 mm 0,0 km/h (0 Bft) S 180 4,0 C 0,0 km/h (0 Bft)
07.05.2015 23:50 7,3 C 7,2 C 81 % 1017,6 hPa 0,0 mm 0,3 km/h (0 Bft) O 90 4,3 C 0,0 km/h (0 Bft)
07.05.2015 23:55 7,3 C 7,1 C 81 % 1017,5 hPa 0,0 mm 0,3 km/h (0 Bft) S-SO 157 4,3 C 0,0 km/h (0 Bft)
_ Min-Zeit 23:45 23:25 16:40 19:50 - 23:45 - - 22:40 23:55
Minimum _ 7,2 C 6,9 C 54 % 1017,4 hPa - 0,0 km/h (0 Bft) - - 3,8 C 0,0 km/h (0 Bft)
_ Max-Zeit 15:25 16:35 06:30 10:30 01:25 00:50 - - 08:35 00:40
Maximum _ 16,1 C 23,6 C 89 % 1019,9 hPa 0,7 mm 11,9 km/h
SW (2 Bft)
- - 8,7 C 26,9 km/h
W (4 Bft)
Durchschnitt _ 11,2 C 12,7 C 73 % 1018,6 hPa #2,7 mm 3,2 km/h (1 Bft) NW - 6,3 C 4,0 km/h (1 Bft)